Location: Brompton
(51.4000°N, 0.5333°E)
Time: 18:47:39
(UTC+00:00)

Cosmos 1602 - Pass Details

Date: 11 May 2021
Orbit: 514 x 532 km, 82.5° (Epoch: 21 June)

Event Time Altitude Azimuth Distance (km) Brightness Sun altitude
Rises 20:19:02 0° 350° (N) 2,658 8.2 -6.2°
Reaches altitude 10° 20:21:11 10° 352° (N) 1,768 7.2 -6.4°
Maximum altitude 20:25:04 79° 79° (E) 540 3.7 -6.9°
Drops below altitude 10° 20:28:56 10° 167° (SSE) 1,763 5.9 -7.3°
Enters shadow 20:30:01 - 168° (SSE) 2,209 6.4 -7.5°
